• In Hungary
  • List of Countries
  • For 7 days
  • Water Temperature
  • Satellite Maps
  • Weather Map
  • News
  • Weather Widgets
  • user-avatar
    Login

    Hourly Weather Tuchlin

    Today, 20 June, Wednesday

    Time Temperature Precipitation Wind Pressure Humidity
    00:00 +15°C° 0 mm 2 mps 753 mmHg 92%
    01:00 +14°C° 0 mm 2 mps 753 mmHg 93%
    02:00 +13°C° 0 mm 3 mps 753 mmHg 94%
    03:00 +13°C° 0 mm 3 mps 753 mmHg 94%
    04:00 +12°C° 0 mm 3 mps 753 mmHg 94%
    05:00 +14°C° 0 mm 3 mps 753 mmHg 86%
    06:00 +15°C° 0 mm 4 mps 753 mmHg 78%
    07:00 +18°C° 0 mm 4 mps 754 mmHg 70%
    08:00 +19°C° 0 mm 4 mps 754 mmHg 65%
    09:00 +20°C° 0 mm 4 mps 754 mmHg 61%
    10:00 +21°C° 0 mm 4 mps 754 mmHg 56%
    11:00 +22°C° 0 mm 4 mps 754 mmHg 54%
    12:00 +23°C° 0 mm 4 mps 754 mmHg 52%
    13:00 +23°C° 0 mm 4 mps 754 mmHg 51%
    14:00 +23°C° 0 mm 4 mps 753 mmHg 52%
    15:00 +23°C° 0 mm 4 mps 753 mmHg 53%
    16:00 +25°C° 0 mm 4 mps 753 mmHg 54%
    17:00 +24°C° 0 mm 3 mps 753 mmHg 59%
    18:00 +23°C° 0 mm 2 mps 752 mmHg 65%
    19:00 +22°C° 0 mm 1 mps 752 mmHg 71%
    20:00 +20°C° 0 mm 1 mps 752 mmHg 73%
    21:00 +18°C° 0 mm 2 mps 752 mmHg 75%
    22:00 +17°C° 0 mm 2 mps 752 mmHg 77%
    23:00 +17°C° 0 mm 2 mps 752 mmHg 79%

    Tomorrow, 21 June, Thursday

    Time Temperature Precipitation Wind Pressure Humidity
    00:00 +16°C° 0 mm 3 mps 751 mmHg 81%
    01:00 +16°C° 0 mm 3 mps 751 mmHg 83%
    02:00 +17°C° 0 mm 3 mps 751 mmHg 83%
    03:00 +17°C° 0 mm 3 mps 750 mmHg 84%
    04:00 +18°C° 0 mm 3 mps 750 mmHg 84%
    05:00 +19°C° 0.1 mm 3 mps 749 mmHg 81%
    06:00 +21°C° 0.1 mm 4 mps 749 mmHg 78%
    07:00 +22°C° 0.1 mm 4 mps 749 mmHg 75%
    08:00 +23°C° 0.1 mm 5 mps 748 mmHg 72%
    09:00 +23°C° 0.1 mm 5 mps 748 mmHg 70%
    10:00 +24°C° 0.1 mm 6 mps 747 mmHg 67%
    11:00 +26°C° 0.3 mm 6 mps 746 mmHg 65%
    12:00 +27°C° 0.3 mm 6 mps 745 mmHg 62%
    13:00 +28°C° 0.3 mm 6 mps 745 mmHg 60%
    14:00 +27°C° 0.6 mm 6 mps 744 mmHg 65%
    15:00 +26°C° 0.6 mm 5 mps 743 mmHg 70%
    16:00 +26°C° 0.6 mm 5 mps 742 mmHg 76%
    17:00 +25°C° 1.3 mm 5 mps 742 mmHg 79%
    18:00 +22°C° 1.3 mm 5 mps 741 mmHg 82%
    19:00 +21°C° 1.3 mm 5 mps 741 mmHg 85%
    20:00 +19°C° 0.5 mm 5 mps 741 mmHg 87%
    21:00 +16°C° 0.5 mm 5 mps 741 mmHg 89%
    22:00 +13°C° 0.5 mm 5 mps 742 mmHg 92%
    23:00 +12°C° 0.2 mm 5 mps 742 mmHg 92%

    Day after tomorrow, 22 June, Friday

    Time Temperature Precipitation Wind Pressure Humidity
    00:00 +10°C° 0.2 mm 5 mps 742 mmHg 93%
    01:00 +10°C° 0.2 mm 5 mps 743 mmHg 93%
    02:00 +9°C° 0 mm 5 mps 743 mmHg 92%
    03:00 +9°C° 0 mm 5 mps 743 mmHg 91%
    04:00 +9°C° 0 mm 6 mps 744 mmHg 90%
    05:00 +10°C° 0 mm 6 mps 744 mmHg 83%
    06:00 +11°C° 0 mm 7 mps 744 mmHg 76%
    07:00 +11°C° 0 mm 7 mps 744 mmHg 70%
    08:00 +12°C° 0 mm 7 mps 744 mmHg 65%
    09:00 +13°C° 0 mm 8 mps 744 mmHg 61%
    10:00 +15°C° 0 mm 8 mps 744 mmHg 56%
    11:00 +15°C° 0 mm 8 mps 744 mmHg 56%
    12:00 +15°C° 0 mm 8 mps 745 mmHg 56%
    13:00 +16°C° 0 mm 9 mps 745 mmHg 56%
    14:00 +15°C° 0.1 mm 8 mps 745 mmHg 59%
    15:00 +15°C° 0.1 mm 8 mps 745 mmHg 63%
    16:00 +15°C° 0.1 mm 7 mps 746 mmHg 67%
    17:00 +14°C° 0.1 mm 6 mps 746 mmHg 71%
    18:00 +13°C° 0.1 mm 5 mps 746 mmHg 75%
    19:00 +13°C° 0.1 mm 4 mps 746 mmHg 79%
    20:00 +12°C° 0 mm 3 mps 746 mmHg 83%
    21:00 +10°C° 0 mm 3 mps 747 mmHg 87%
    22:00 +9°C° 0 mm 3 mps 747 mmHg 91%
    23:00 +9°C° 0 mm 3 mps 747 mmHg 90%

    23 June, Saturday

    Time Temperature Precipitation Wind Pressure Humidity
    00:00 +9°C° 0 mm 3 mps 747 mmHg 90%
    01:00 +8°C° 0 mm 3 mps 747 mmHg 90%
    02:00 +8°C° 0 mm 3 mps 747 mmHg 89%
    03:00 +8°C° 0 mm 3 mps 747 mmHg 89%
    04:00 +8°C° 0 mm 3 mps 747 mmHg 89%
    05:00 +10°C° 0 mm 4 mps 747 mmHg 83%
    06:00 +12°C° 0 mm 4 mps 747 mmHg 77%
    07:00 +14°C° 0 mm 5 mps 747 mmHg 71%
    08:00 +14°C° 0.5 mm 5 mps 747 mmHg 72%
    09:00 +14°C° 0.5 mm 5 mps 747 mmHg 74%
    10:00 +15°C° 0.5 mm 5 mps 747 mmHg 75%
    11:00 +15°C° 0.4 mm 5 mps 747 mmHg 73%
    12:00 +16°C° 0.4 mm 5 mps 747 mmHg 70%
    13:00 +16°C° 0.4 mm 5 mps 747 mmHg 68%
    14:00 +16°C° 0.2 mm 5 mps 747 mmHg 66%
    15:00 +16°C° 0.2 mm 5 mps 747 mmHg 64%
    16:00 +16°C° 0.2 mm 6 mps 747 mmHg 62%
    17:00 +15°C° 0.1 mm 5 mps 747 mmHg 65%
    18:00 +14°C° 0.1 mm 4 mps 747 mmHg 69%
    19:00 +13°C° 0.1 mm 3 mps 747 mmHg 73%
    20:00 +12°C° 0 mm 3 mps 748 mmHg 78%
    21:00 +10°C° 0 mm 3 mps 748 mmHg 83%
    22:00 +9°C° 0 mm 2 mps 748 mmHg 87%
    23:00 +9°C° 0 mm 2 mps 748 mmHg 87%

    24 June, Sunday

    Time Temperature Precipitation Wind Pressure Humidity
    00:00 +9°C° 0 mm 2 mps 748 mmHg 87%
    01:00 +8°C° 0 mm 2 mps 748 mmHg 87%
    02:00 +8°C° 0 mm 2 mps 749 mmHg 86%
    03:00 +8°C° 0 mm 2 mps 749 mmHg 86%
    04:00 +9°C° 0 mm 2 mps 749 mmHg 86%
    05:00 +10°C° 0 mm 2 mps 749 mmHg 81%
    06:00 +13°C° 0 mm 2 mps 749 mmHg 75%
    07:00 +15°C° 0 mm 2 mps 749 mmHg 70%
    08:00 +17°C° 0 mm 2 mps 750 mmHg 65%
    09:00 +18°C° 0 mm 2 mps 750 mmHg 61%
    10:00 +19°C° 0 mm 3 mps 750 mmHg 56%
    11:00 +19°C° 0.3 mm 3 mps 750 mmHg 58%
    12:00 +19°C° 0.3 mm 3 mps 750 mmHg 61%
    13:00 +19°C° 0.3 mm 3 mps 750 mmHg 63%
    14:00 +19°C° 0.2 mm 3 mps 750 mmHg 61%
    15:00 +19°C° 0.2 mm 4 mps 750 mmHg 59%
    16:00 +19°C° 0.2 mm 4 mps 750 mmHg 58%
    17:00 +18°C° 0 mm 3 mps 750 mmHg 62%
    18:00 +17°C° 0 mm 3 mps 750 mmHg 67%
    19:00 +16°C° 0 mm 2 mps 750 mmHg 72%
    20:00 +14°C° 0 mm 2 mps 751 mmHg 78%
    21:00 +13°C° 0 mm 2 mps 751 mmHg 84%
    22:00 +10°C° 0 mm 2 mps 751 mmHg 89%
    23:00 +9°C° 0 mm 2 mps 751 mmHg 90%

    25 June, Monday

    Time Temperature Precipitation Wind Pressure Humidity
    00:00 +9°C° 0 mm 2 mps 751 mmHg 90%
    01:00 +8°C° 0 mm 2 mps 751 mmHg 90%
    02:00 +8°C° 0 mm 2 mps 751 mmHg 88%
    03:00 +8°C° 0 mm 2 mps 752 mmHg 87%
    04:00 +8°C° 0 mm 2 mps 752 mmHg 85%
    05:00 +12°C° 0 mm 2 mps 752 mmHg 78%
    06:00 +13°C° 0 mm 3 mps 752 mmHg 71%
    07:00 +16°C° 0 mm 3 mps 752 mmHg 64%
    08:00 +17°C° 0 mm 3 mps 752 mmHg 60%
    09:00 +19°C° 0 mm 4 mps 752 mmHg 56%
    10:00 +20°C° 0 mm 4 mps 752 mmHg 52%
    11:00 +21°C° 0 mm 4 mps 752 mmHg 50%
    12:00 +22°C° 0 mm 4 mps 752 mmHg 48%
    13:00 +22°C° 0 mm 4 mps 751 mmHg 46%
    14:00 +22°C° 0 mm 4 mps 751 mmHg 52%
    15:00 +21°C° 0 mm 3 mps 751 mmHg 58%
    16:00 +20°C° 0 mm 3 mps 751 mmHg 64%
    17:00 +19°C° 0.1 mm 3 mps 751 mmHg 70%
    18:00 +17°C° 0.1 mm 2 mps 751 mmHg 76%
    19:00 +16°C° 0.1 mm 2 mps 751 mmHg 82%
    20:00 +15°C° 0 mm 2 mps 751 mmHg 84%
    21:00 +15°C° 0 mm 2 mps 751 mmHg 85%
    22:00 +14°C° 0 mm 2 mps 751 mmHg 86%
    23:00 +14°C° 0 mm 2 mps 751 mmHg 89%
    Show more